EZY28YX EGCC-LEIB

Flight info

Callsign EZY28YX
Flight time 2h 24m
Altitude 37000
Route LISTO P18 TELBA L151 KIDLI UN859 SOPIL DCT BALAN DCT EVPOK DCT NARAK DCT GAI DCT LOMRA DCT ROCAN DCT PUMAL N859 BCN Z174 CORDA
Aircraft A320/M-SDE2E3FGHIJ1RWXYZ/LB1

Departure

Time 2026-05-04 11:08
Airport Manchester Airport (EGCC)

Arrival

Time 2026-05-04 13:32
Airport Ibiza Airport (LEIB)
Time Latitude Longitude Altitude Speed Heading
2026-05-04 10:30 53.36641 -2.28615 255 ft 0 kts 135°
2026-05-04 10:54 53.36678 -2.28653 255 ft 4 kts 224°
2026-05-04 10:54 53.36667 -2.28672 255 ft 0 kts 224°
2026-05-04 10:56 53.36666 -2.28673 255 ft 1 kts 225°
2026-05-04 10:56 53.36651 -2.28698 255 ft 5 kts 226°
2026-05-04 10:57 53.36636 -2.28767 255 ft 8 kts 250°
2026-05-04 10:57 53.36588 -2.28772 255 ft 9 kts 144°
2026-05-04 10:57 53.36541 -2.28693 255 ft 9 kts 134°
2026-05-04 10:57 53.36499 -2.28623 255 ft 8 kts 135°
2026-05-04 10:58 53.36465 -2.28563 255 ft 6 kts 134°
2026-05-04 10:58 53.36435 -2.28514 255 ft 6 kts 136°
2026-05-04 10:58 53.36392 -2.28481 255 ft 8 kts 167°
2026-05-04 10:58 53.36347 -2.28461 255 ft 6 kts 155°
2026-05-04 10:59 53.36318 -2.28425 255 ft 5 kts 137°
2026-05-04 10:59 53.36296 -2.28389 255 ft 7 kts 135°
2026-05-04 10:59 53.36249 -2.28310 255 ft 9 kts 134°
2026-05-04 10:59 53.36202 -2.28230 255 ft 13 kts 135°
2026-05-04 11:00 53.36142 -2.28127 255 ft 11 kts 134°
2026-05-04 11:01 53.35654 -2.27890 242 ft 11 kts 186°
2026-05-04 11:02 53.35591 -2.27970 238 ft 12 kts 231°
2026-05-04 11:02 53.35532 -2.28082 234 ft 14 kts 222°
2026-05-04 11:05 53.34539 -2.29233 214 ft 10 kts 83°
2026-05-04 11:06 53.34595 -2.29106 216 ft 22 kts 51°
2026-05-04 11:06 53.34848 -2.28584 230 ft 91 kts 51°
2026-05-04 11:06 53.35372 -2.27499 243 ft 146 kts 51°
2026-05-04 11:06 53.36064 -2.26064 647 ft 156 kts 50°
2026-05-04 11:08 53.31799 -2.17297 4038 ft 255 kts 180°
2026-05-04 11:10 53.18497 -2.19248 9602 ft 285 kts 186°
2026-05-04 11:12 53.02862 -2.21701 13645 ft 345 kts 186°
2026-05-04 11:12 53.00456 -2.22074 14278 ft 349 kts 186°
2026-05-04 11:12 52.98033 -2.22449 14898 ft 351 kts 186°
2026-05-04 11:12 52.95595 -2.22826 15570 ft 353 kts 186°
2026-05-04 11:13 52.93146 -2.23207 16202 ft 355 kts 186°
2026-05-04 11:13 52.90667 -2.23377 16795 ft 359 kts 175°
2026-05-04 11:13 52.88206 -2.22557 17379 ft 363 kts 166°
2026-05-04 11:13 52.85753 -2.21506 17978 ft 366 kts 166°
2026-05-04 11:14 52.83282 -2.20428 18541 ft 369 kts 166°
2026-05-04 11:14 52.80796 -2.19329 19058 ft 371 kts 165°
2026-05-04 11:14 52.78291 -2.18218 19583 ft 374 kts 165°
2026-05-04 11:16 52.60299 -2.10329 23198 ft 392 kts 164°
2026-05-04 11:16 52.57653 -2.09174 23670 ft 395 kts 165°
2026-05-04 11:16 52.54986 -2.08012 24057 ft 398 kts 164°
2026-05-04 11:17 52.52303 -2.06845 24436 ft 401 kts 164°
2026-05-04 11:17 52.49598 -2.05671 24816 ft 403 kts 165°
2026-05-04 11:19 52.31353 -1.93689 27372 ft 415 kts 147°
2026-05-04 11:19 52.28938 -1.91083 27699 ft 418 kts 147°
2026-05-04 11:19 52.26503 -1.88462 27986 ft 421 kts 147°
2026-05-04 11:19 52.24051 -1.85831 28316 ft 423 kts 148°
2026-05-04 11:20 52.21588 -1.83195 28653 ft 425 kts 148°
2026-05-04 11:20 52.19111 -1.80547 28966 ft 427 kts 148°
2026-05-04 11:20 52.16623 -1.77888 29267 ft 429 kts 148°
2026-05-04 11:20 52.14125 -1.75221 29567 ft 431 kts 148°
2026-05-04 11:22 51.96351 -1.56296 31394 ft 438 kts 148°
2026-05-04 11:22 51.93798 -1.53602 31700 ft 438 kts 148°
2026-05-04 11:23 51.91244 -1.50922 32001 ft 437 kts 148°
2026-05-04 11:23 51.88692 -1.48253 32304 ft 437 kts 148°
2026-05-04 11:24 51.72962 -1.34000 34030 ft 432 kts 163°
2026-05-04 11:25 51.70093 -1.32563 34249 ft 432 kts 163°
2026-05-04 11:25 51.67222 -1.31118 34451 ft 432 kts 163°
2026-05-04 11:25 51.64350 -1.29661 34657 ft 432 kts 163°
2026-05-04 11:26 51.58617 -1.26738 35072 ft 432 kts 163°
2026-05-04 11:27 51.39049 -1.14516 36375 ft 432 kts 156°
2026-05-04 11:28 51.36317 -1.12508 36535 ft 432 kts 156°
2026-05-04 11:28 51.33580 -1.10503 36686 ft 432 kts 156°
2026-05-04 11:28 51.30847 -1.08508 36890 ft 431 kts 156°
2026-05-04 11:28 51.28116 -1.06516 37013 ft 431 kts 156°
2026-05-04 11:29 51.22678 -1.02545 37030 ft 429 kts 156°
2026-05-04 11:29 51.17252 -0.98582 37029 ft 429 kts 156°
2026-05-04 11:33 50.79796 -0.69830 37003 ft 428 kts 148°
2026-05-04 11:33 50.74792 -0.64733 37006 ft 428 kts 149°
2026-05-04 11:34 50.69777 -0.59655 37004 ft 428 kts 149°
2026-05-04 11:34 50.64799 -0.54616 37006 ft 428 kts 149°
2026-05-04 11:35 50.59778 -0.49559 37021 ft 428 kts 149°
2026-05-04 11:35 50.54763 -0.44508 37024 ft 428 kts 149°
2026-05-04 11:36 50.49739 -0.39465 37026 ft 428 kts 149°
2026-05-04 11:36 50.44718 -0.34431 37023 ft 428 kts 149°
2026-05-04 11:37 50.39690 -0.29407 37029 ft 428 kts 149°
2026-05-04 11:37 50.34660 -0.24398 37032 ft 428 kts 149°
2026-05-04 11:38 50.29637 -0.19408 37034 ft 428 kts 149°
2026-05-04 11:38 50.24610 -0.14419 37036 ft 428 kts 149°
2026-05-04 11:39 50.19589 -0.09443 37033 ft 428 kts 149°
2026-05-04 11:40 50.03741 0.02453 37016 ft 422 kts 167°
2026-05-04 11:41 50.00899 0.03570 37019 ft 422 kts 167°
2026-05-04 11:41 49.95212 0.05816 37016 ft 421 kts 167°
2026-05-04 11:42 49.89526 0.08061 37015 ft 421 kts 167°
2026-05-04 11:42 49.83841 0.10284 37018 ft 422 kts 167°
2026-05-04 11:43 49.78151 0.12504 37023 ft 422 kts 167°
2026-05-04 11:43 49.72502 0.14712 37016 ft 422 kts 167°
2026-05-04 11:44 49.66807 0.16932 37026 ft 422 kts 167°
2026-05-04 11:44 49.61121 0.19210 37027 ft 422 kts 167°
2026-05-04 11:45 49.55436 0.21519 37029 ft 422 kts 167°
2026-05-04 11:45 49.49753 0.23812 37024 ft 422 kts 167°
2026-05-04 11:46 49.44062 0.26094 37006 ft 423 kts 167°
2026-05-04 11:46 49.38372 0.28361 37009 ft 423 kts 167°
2026-05-04 11:47 49.33639 0.30248 37010 ft 423 kts 167°
2026-05-04 11:47 49.27952 0.32541 37012 ft 423 kts 167°
2026-05-04 11:48 49.22278 0.34943 37008 ft 423 kts 166°
2026-05-04 11:48 49.16610 0.37356 37000 ft 423 kts 166°
2026-05-04 11:49 49.10931 0.39757 37002 ft 423 kts 167°
2026-05-04 11:49 49.05250 0.42130 36995 ft 423 kts 167°
2026-05-04 11:50 48.99573 0.44507 36979 ft 423 kts 167°
2026-05-04 11:50 48.93908 0.46875 36992 ft 422 kts 167°
2026-05-04 11:51 48.88242 0.49221 36994 ft 422 kts 167°
2026-05-04 11:51 48.82586 0.51565 36994 ft 421 kts 167°
2026-05-04 11:52 48.76927 0.53898 36999 ft 421 kts 167°
2026-05-04 11:52 48.71262 0.56130 36994 ft 421 kts 168°
2026-05-04 11:53 48.65588 0.58318 36989 ft 420 kts 168°
2026-05-04 11:53 48.59923 0.60525 36986 ft 420 kts 167°
2026-05-04 11:55 48.37335 0.69568 36987 ft 419 kts 167°
2026-05-04 11:56 48.31711 0.71865 36987 ft 419 kts 167°
2026-05-04 11:56 48.26122 0.74122 36986 ft 418 kts 167°
2026-05-04 11:57 48.20498 0.76365 36982 ft 418 kts 167°
2026-05-04 11:57 48.14871 0.78562 36985 ft 417 kts 168°
2026-05-04 11:58 48.09257 0.80750 36981 ft 417 kts 168°
2026-05-04 11:58 48.03643 0.82953 36978 ft 417 kts 167°
2026-05-04 11:59 47.98036 0.85144 36957 ft 417 kts 168°
2026-05-04 11:59 47.92424 0.87327 36966 ft 416 kts 168°
2026-05-04 12:00 47.86820 0.89511 36970 ft 416 kts 168°
2026-05-04 12:00 47.81213 0.91696 36977 ft 416 kts 168°
2026-05-04 12:01 47.75608 0.93874 36969 ft 416 kts 168°
2026-05-04 12:02 47.55997 1.01418 36964 ft 416 kts 168°
2026-05-04 12:03 47.50393 1.03570 36967 ft 416 kts 168°
2026-05-04 12:03 47.44786 1.05712 36969 ft 416 kts 170°
2026-05-04 12:04 47.39084 1.06360 36964 ft 411 kts 183°
2026-05-04 12:04 47.33367 1.06213 36962 ft 411 kts 182°
2026-05-04 12:05 47.27647 1.06084 36967 ft 411 kts 182°
2026-05-04 12:05 47.21930 1.05948 36967 ft 411 kts 182°
2026-05-04 12:06 47.16213 1.05818 36955 ft 411 kts 183°
2026-05-04 12:06 47.10500 1.05679 36956 ft 411 kts 183°
2026-05-04 12:07 47.04787 1.05548 36959 ft 410 kts 183°
2026-05-04 12:07 46.99076 1.05400 36959 ft 410 kts 183°
2026-05-04 12:08 46.93374 1.05146 36952 ft 410 kts 184°
2026-05-04 12:08 46.87672 1.04873 36954 ft 410 kts 184°
2026-05-04 12:09 46.81975 1.04619 36957 ft 410 kts 184°
2026-05-04 12:09 46.76275 1.04369 36954 ft 409 kts 184°
2026-05-04 12:10 46.70580 1.04125 36950 ft 409 kts 184°
2026-05-04 12:10 46.64892 1.03893 36950 ft 409 kts 184°
2026-05-04 12:11 46.59242 1.03663 36951 ft 409 kts 184°
2026-05-04 12:11 46.53552 1.03427 36942 ft 409 kts 182°
2026-05-04 12:12 46.47907 1.04562 36951 ft 412 kts 170°
2026-05-04 12:12 46.42315 1.06447 36942 ft 412 kts 170°
2026-05-04 12:14 46.19957 1.13885 36950 ft 412 kts 170°
2026-05-04 12:15 46.14372 1.15736 36945 ft 412 kts 171°
2026-05-04 12:15 46.08788 1.17583 36951 ft 412 kts 171°
2026-05-04 12:16 46.03199 1.19429 36926 ft 412 kts 171°
2026-05-04 12:16 45.97619 1.21261 36937 ft 411 kts 171°
2026-05-04 12:17 45.92040 1.23094 36941 ft 411 kts 171°
2026-05-04 12:17 45.86470 1.24926 36950 ft 411 kts 171°
2026-05-04 12:18 45.80902 1.26753 36954 ft 410 kts 171°
2026-05-04 12:18 45.75342 1.28567 36948 ft 410 kts 171°
2026-05-04 12:19 45.69780 1.30370 36957 ft 409 kts 171°
2026-05-04 12:19 45.64229 1.32181 36957 ft 409 kts 171°
2026-05-04 12:20 45.58714 1.33974 36955 ft 409 kts 171°
2026-05-04 12:20 45.53158 1.35776 36944 ft 409 kts 171°
2026-05-04 12:21 45.47609 1.37566 36952 ft 409 kts 171°
2026-05-04 12:21 45.42059 1.39345 36950 ft 409 kts 171°
2026-05-04 12:22 45.36514 1.41123 36941 ft 409 kts 171°
2026-05-04 12:22 45.30967 1.42915 36944 ft 409 kts 171°
2026-05-04 12:23 45.25425 1.44694 36945 ft 408 kts 171°
2026-05-04 12:23 45.19882 1.46466 36944 ft 408 kts 171°
2026-05-04 12:24 45.14340 1.48241 36937 ft 408 kts 171°
2026-05-04 12:24 45.08801 1.50011 36939 ft 408 kts 171°
2026-05-04 12:25 45.03256 1.51769 36943 ft 408 kts 172°
2026-05-04 12:25 44.97712 1.53527 36913 ft 408 kts 172°
2026-05-04 12:26 44.92177 1.55281 36935 ft 408 kts 172°
2026-05-04 12:26 44.86636 1.57027 36943 ft 408 kts 172°
2026-05-04 12:27 44.81101 1.58774 36948 ft 408 kts 172°
2026-05-04 12:27 44.75561 1.60527 36950 ft 408 kts 172°
2026-05-04 12:28 44.70069 1.62261 36950 ft 407 kts 172°
2026-05-04 12:28 44.64534 1.63997 36954 ft 407 kts 172°
2026-05-04 12:29 44.59002 1.65719 36938 ft 407 kts 172°
2026-05-04 12:29 44.53466 1.67443 36942 ft 407 kts 172°
2026-05-04 12:30 44.47937 1.69172 36949 ft 407 kts 172°
2026-05-04 12:30 44.42403 1.70897 36951 ft 407 kts 172°
2026-05-04 12:31 44.36867 1.72617 36936 ft 407 kts 173°
2026-05-04 12:31 44.31333 1.74325 36940 ft 408 kts 173°
2026-05-04 12:32 44.22996 1.76486 36944 ft 405 kts 176°
2026-05-04 12:33 44.17419 1.77612 36939 ft 405 kts 177°
2026-05-04 12:33 44.11850 1.78774 36944 ft 405 kts 176°
2026-05-04 12:34 44.07224 1.79795 36948 ft 405 kts 176°
2026-05-04 12:34 44.01656 1.81041 36947 ft 405 kts 176°
2026-05-04 12:35 43.96093 1.82273 36940 ft 404 kts 177°
2026-05-04 12:35 43.90532 1.83118 36946 ft 401 kts 181°
2026-05-04 12:36 43.84972 1.83551 36952 ft 400 kts 182°
2026-05-04 12:36 43.79421 1.83967 36944 ft 400 kts 182°
2026-05-04 12:37 43.73867 1.84471 36951 ft 400 kts 181°
2026-05-04 12:37 43.68320 1.85026 36956 ft 400 kts 181°
2026-05-04 12:38 43.62771 1.85576 36954 ft 399 kts 181°
2026-05-04 12:38 43.57231 1.86116 36949 ft 399 kts 181°
2026-05-04 12:39 43.51699 1.86650 36950 ft 398 kts 181°
2026-05-04 12:39 43.46174 1.87178 36951 ft 398 kts 181°
2026-05-04 12:40 43.40651 1.87708 36929 ft 398 kts 182°
2026-05-04 12:40 43.35131 1.88236 36935 ft 397 kts 182°
2026-05-04 12:41 43.29616 1.88756 36937 ft 397 kts 182°
2026-05-04 12:41 43.24132 1.89284 36942 ft 398 kts 182°
2026-05-04 12:42 43.18612 1.89817 36924 ft 398 kts 182°
2026-05-04 12:42 43.13087 1.90339 36930 ft 398 kts 182°
2026-05-04 12:43 43.07561 1.90865 36933 ft 398 kts 182°
2026-05-04 12:43 43.02028 1.91396 36914 ft 398 kts 182°
2026-05-04 12:44 42.96502 1.91921 36905 ft 398 kts 182°
2026-05-04 12:44 42.90961 1.92447 36925 ft 399 kts 182°
2026-05-04 12:45 42.85429 1.92964 36931 ft 399 kts 182°
2026-05-04 12:45 42.79896 1.93489 36929 ft 398 kts 182°
2026-05-04 12:46 42.74370 1.94002 36939 ft 398 kts 182°
2026-05-04 12:46 42.68834 1.94515 36942 ft 399 kts 182°
2026-05-04 12:47 42.63294 1.95287 36940 ft 401 kts 178°
2026-05-04 12:47 42.57781 1.96477 36931 ft 402 kts 177°
2026-05-04 12:48 42.52266 1.97705 36927 ft 401 kts 178°
2026-05-04 12:48 42.46748 1.98852 36932 ft 401 kts 178°
2026-05-04 12:49 42.41222 1.99958 36939 ft 401 kts 178°
2026-05-04 12:49 42.35698 2.01017 36916 ft 400 kts 180°
2026-05-04 12:50 42.30183 2.01644 36920 ft 397 kts 183°
2026-05-04 12:50 42.24668 2.02054 36922 ft 397 kts 183°
2026-05-04 12:51 42.19158 2.02501 36919 ft 397 kts 183°
2026-05-04 12:51 42.13639 2.03014 36921 ft 398 kts 182°
2026-05-04 12:52 42.08120 2.03553 36925 ft 398 kts 182°
2026-05-04 12:52 42.02637 2.04074 36929 ft 398 kts 183°
2026-05-04 12:53 41.97084 2.04591 36930 ft 398 kts 182°
2026-05-04 12:53 41.91561 2.05113 36934 ft 397 kts 183°
2026-05-04 12:54 41.86051 2.05632 36944 ft 397 kts 183°
2026-05-04 12:54 41.80548 2.06153 36947 ft 396 kts 183°
2026-05-04 12:55 41.75047 2.06669 36933 ft 396 kts 184°
2026-05-04 12:55 41.69600 2.07167 36956 ft 395 kts 184°
2026-05-04 12:56 41.64131 2.07677 36963 ft 394 kts 184°
2026-05-04 12:56 41.58669 2.08189 36966 ft 393 kts 184°
2026-05-04 12:57 41.53191 2.08704 36950 ft 392 kts 184°
2026-05-04 12:57 41.47754 2.09203 36977 ft 391 kts 184°
2026-05-04 12:58 41.42371 2.09702 36984 ft 390 kts 184°
2026-05-04 12:58 41.36951 2.10205 36986 ft 390 kts 184°
2026-05-04 12:59 41.31540 2.10709 36957 ft 389 kts 184°
2026-05-04 12:59 41.26130 2.11410 36967 ft 392 kts 181°
2026-05-04 13:00 41.20722 2.12385 36969 ft 392 kts 180°
2026-05-04 13:00 41.15316 2.13366 36972 ft 392 kts 181°
2026-05-04 13:01 41.09911 2.14285 36951 ft 391 kts 181°
2026-05-04 13:01 41.04509 2.15175 36952 ft 391 kts 181°
2026-05-04 13:02 40.99109 2.16069 36951 ft 391 kts 181°
2026-05-04 13:02 40.93713 2.16968 36948 ft 391 kts 181°
2026-05-04 13:03 40.88310 2.17870 36922 ft 391 kts 181°
2026-05-04 13:03 40.82905 2.18773 36931 ft 392 kts 181°
2026-05-04 13:04 40.77490 2.19668 36934 ft 392 kts 181°
2026-05-04 13:04 40.72066 2.20556 36944 ft 393 kts 181°
2026-05-04 13:05 40.66641 2.21459 36954 ft 393 kts 181°
2026-05-04 13:05 40.61215 2.22363 36961 ft 393 kts 181°
2026-05-04 13:06 40.55788 2.23257 36965 ft 393 kts 181°
2026-05-04 13:06 40.50362 2.24149 36966 ft 393 kts 181°
2026-05-04 13:07 40.44936 2.25034 36932 ft 393 kts 181°
2026-05-04 13:07 40.39515 2.25987 36939 ft 395 kts 179°
2026-05-04 13:07 40.36793 2.26633 36821 ft 399 kts 177°
2026-05-04 13:08 40.34074 2.27363 36559 ft 399 kts 176°
2026-05-04 13:08 40.31361 2.28126 36300 ft 399 kts 176°
2026-05-04 13:08 40.28654 2.28888 36046 ft 398 kts 176°
2026-05-04 13:08 40.25944 2.29630 35774 ft 397 kts 177°
2026-05-04 13:09 40.23234 2.30348 35226 ft 398 kts 177°
2026-05-04 13:09 40.20479 2.31054 34150 ft 407 kts 177°
2026-05-04 13:09 40.17680 2.31763 33289 ft 410 kts 176°
2026-05-04 13:09 40.14907 2.32477 32763 ft 404 kts 176°
2026-05-04 13:10 40.12166 2.33190 32197 ft 399 kts 176°
2026-05-04 13:10 40.09454 2.33895 31624 ft 396 kts 176°
2026-05-04 13:10 40.06761 2.34588 31056 ft 393 kts 177°
2026-05-04 13:10 40.04088 2.35269 30500 ft 390 kts 177°
2026-05-04 13:11 40.01434 2.35945 29943 ft 388 kts 177°
2026-05-04 13:11 39.98799 2.36620 29334 ft 384 kts 177°
2026-05-04 13:11 39.96188 2.37292 28771 ft 380 kts 177°
2026-05-04 13:11 39.93602 2.37958 28189 ft 378 kts 177°
2026-05-04 13:12 39.91031 2.38617 27610 ft 375 kts 177°
2026-05-04 13:12 39.88476 2.39271 27043 ft 373 kts 177°
2026-05-04 13:12 39.85933 2.39919 26494 ft 372 kts 177°
2026-05-04 13:12 39.83435 2.40556 25966 ft 370 kts 177°
2026-05-04 13:13 39.80915 2.41197 25452 ft 368 kts 177°
2026-05-04 13:13 39.78401 2.41835 24947 ft 367 kts 177°
2026-05-04 13:13 39.75901 2.42418 24445 ft 361 kts 182°
2026-05-04 13:13 39.73438 2.42432 23977 ft 349 kts 193°
2026-05-04 13:14 39.71037 2.42063 23476 ft 347 kts 194°
2026-05-04 13:14 39.68642 2.41691 22904 ft 346 kts 193°
2026-05-04 13:14 39.66256 2.41322 22368 ft 345 kts 193°
2026-05-04 13:14 39.63878 2.40954 21854 ft 343 kts 193°
2026-05-04 13:15 39.61516 2.40589 21361 ft 342 kts 193°
2026-05-04 13:15 39.59157 2.40230 20914 ft 341 kts 193°
2026-05-04 13:15 39.56819 2.39812 20457 ft 335 kts 199°
2026-05-04 13:15 39.54672 2.38794 19969 ft 325 kts 213°
2026-05-04 13:16 39.52849 2.37131 19515 ft 318 kts 225°
2026-05-04 13:16 39.51218 2.35199 19034 ft 318 kts 225°
2026-05-04 13:16 39.49588 2.33275 18573 ft 317 kts 225°
2026-05-04 13:16 39.47957 2.31360 18105 ft 316 kts 225°
2026-05-04 13:17 39.46327 2.29446 17603 ft 316 kts 225°
2026-05-04 13:17 39.44704 2.27542 17128 ft 315 kts 225°
2026-05-04 13:17 39.43084 2.25648 16670 ft 313 kts 224°
2026-05-04 13:17 39.41470 2.23759 16229 ft 312 kts 224°
2026-05-04 13:18 39.39865 2.21879 15797 ft 311 kts 224°
2026-05-04 13:18 39.38261 2.20003 15368 ft 310 kts 224°
2026-05-04 13:18 39.36663 2.18139 14922 ft 309 kts 224°
2026-05-04 13:18 39.35073 2.16283 14492 ft 309 kts 224°
2026-05-04 13:19 39.33490 2.14430 14125 ft 306 kts 224°
2026-05-04 13:19 39.32442 2.13205 13818 ft 306 kts 224°
2026-05-04 13:19 39.30865 2.11367 13387 ft 305 kts 224°
2026-05-04 13:19 39.29300 2.09544 12995 ft 302 kts 223°
2026-05-04 13:20 39.27751 2.07741 12609 ft 299 kts 223°
2026-05-04 13:20 39.26213 2.05953 12216 ft 296 kts 223°
2026-05-04 13:20 39.24688 2.04178 11827 ft 294 kts 223°
2026-05-04 13:20 39.23176 2.02420 11436 ft 292 kts 223°
2026-05-04 13:21 39.21674 2.00678 11047 ft 290 kts 223°
2026-05-04 13:21 39.20182 1.98948 10655 ft 288 kts 223°
2026-05-04 13:21 39.18696 1.97225 10249 ft 286 kts 223°
2026-05-04 13:21 39.17221 1.95516 9868 ft 284 kts 223°
2026-05-04 13:22 39.15778 1.93842 9727 ft 273 kts 223°
2026-05-04 13:22 39.14378 1.92217 9376 ft 270 kts 223°
2026-05-04 13:22 39.12988 1.90603 8997 ft 268 kts 223°
2026-05-04 13:22 39.11607 1.89007 8605 ft 266 kts 223°
2026-05-04 13:23 39.10232 1.87422 8189 ft 265 kts 223°
2026-05-04 13:23 39.08867 1.85846 7791 ft 262 kts 223°
2026-05-04 13:23 39.07513 1.84284 7400 ft 261 kts 223°
2026-05-04 13:23 39.06191 1.82710 7027 ft 257 kts 227°
2026-05-04 13:24 39.05179 1.80893 6717 ft 242 kts 239°
2026-05-04 13:24 39.04407 1.79024 6589 ft 230 kts 242°
2026-05-04 13:24 39.03690 1.77235 6466 ft 220 kts 241°
2026-05-04 13:25 39.02311 1.73851 5975 ft 209 kts 241°
2026-05-04 13:25 39.01639 1.72207 5705 ft 207 kts 241°
2026-05-04 13:25 39.00968 1.70569 5412 ft 206 kts 241°
2026-05-04 13:25 39.00301 1.68939 5160 ft 206 kts 241°
2026-05-04 13:26 38.99635 1.67312 4887 ft 205 kts 241°
2026-05-04 13:26 38.98975 1.65703 4618 ft 203 kts 241°
2026-05-04 13:26 38.98320 1.64106 4341 ft 201 kts 241°
2026-05-04 13:26 38.97672 1.62525 4083 ft 200 kts 242°
2026-05-04 13:27 38.97027 1.60953 3814 ft 197 kts 241°
2026-05-04 13:27 38.96404 1.59437 3579 ft 185 kts 241°
2026-05-04 13:27 38.95824 1.58024 3340 ft 173 kts 240°
2026-05-04 13:27 38.95278 1.56696 3112 ft 160 kts 240°
2026-05-04 13:28 38.94797 1.55524 2913 ft 141 kts 240°
2026-05-04 13:28 38.94348 1.54433 2736 ft 133 kts 239°
2026-05-04 13:28 38.93921 1.53395 2540 ft 131 kts 239°
2026-05-04 13:28 38.93496 1.52366 2386 ft 129 kts 240°
2026-05-04 13:29 38.93077 1.51347 2212 ft 129 kts 240°
2026-05-04 13:29 38.92657 1.50327 2043 ft 129 kts 239°
2026-05-04 13:29 38.92242 1.49322 1876 ft 127 kts 238°
2026-05-04 13:29 38.91829 1.48319 1705 ft 127 kts 238°
2026-05-04 13:30 38.91413 1.47311 1530 ft 127 kts 239°
2026-05-04 13:30 38.90997 1.46302 1360 ft 127 kts 240°
2026-05-04 13:30 38.90583 1.45298 1191 ft 127 kts 239°
2026-05-04 13:30 38.90174 1.44306 1020 ft 126 kts 238°
2026-05-04 13:31 38.89760 1.43304 842 ft 126 kts 240°
2026-05-04 13:31 38.89348 1.42308 676 ft 128 kts 239°
2026-05-04 13:31 38.88924 1.41280 504 ft 132 kts 239°
2026-05-04 13:31 38.88502 1.40249 329 ft 130 kts 240°
2026-05-04 13:32 38.88073 1.39218 147 ft 130 kts 239°
2026-05-04 13:32 38.87659 1.38213 17 ft 119 kts 241°
2026-05-04 13:32 38.87338 1.37440 10 ft 74 kts 242°
2026-05-04 13:32 38.87177 1.37050 11 ft 28 kts 242°
2026-05-04 13:33 38.87106 1.36838 10 ft 23 kts 263°
2026-05-04 13:33 38.87101 1.36652 8 ft 17 kts 271°
2026-05-04 13:33 38.87113 1.36555 10 ft 9 kts 313°
2026-05-04 13:33 38.87163 1.36566 8 ft 7 kts 46°
2026-05-04 13:34 38.87185 1.36617 8 ft 6 kts 63°
2026-05-04 13:34 38.87202 1.36658 9 ft 5 kts 63°
2026-05-04 13:34 38.87216 1.36693 9 ft 4 kts 62°
2026-05-04 13:34 38.87232 1.36731 9 ft 6 kts 63°
2026-05-04 13:35 38.87255 1.36791 9 ft 9 kts 64°
2026-05-04 13:35 38.87340 1.36839 9 ft 7 kts 333°
2026-05-04 13:35 38.87381 1.36811 8 ft 6 kts 333°
2026-05-04 13:36 38.87417 1.36785 8 ft 5 kts 317°
2026-05-04 13:36 38.87419 1.36754 8 ft 3 kts 233°
2026-05-04 13:36 38.87400 1.36708 8 ft 7 kts 243°
2026-05-04 13:36 38.87375 1.36645 9 ft 6 kts 243°
2026-05-04 13:37 38.87382 1.36611 8 ft 4 kts 320°
2026-05-04 13:37 38.87404 1.36595 8 ft 3 kts 331°
2026-05-04 13:37 38.87424 1.36581 8 ft 3 kts 336°
2026-05-04 13:37 38.87434 1.36584 8 ft 2 kts 14°
2026-05-04 13:38 38.87437 1.36585 8 ft 0 kts 14°